GW6292 Weather Reports


time (UTC)temp
C
wind
direction
speed
KPH
gust
KPH
rain 1hr
cm
rain 24hr
cm
rain mn
cm
humidity
%
barometer
mb
20260506025443 22 23 6.4 9.7 0.00 0.00 0.00 45 1010.9
20260506024939 22 23 6.4 6.4 0.00 0.00 0.00 45 1010.8
20260506024436 22 23 3.2 3.2 0.00 0.00 0.00 44 1011.0
20260506023932 22 23 4.8 6.4 0.00 0.00 0.00 45 1011.0
20260506023429 22 23 3.2 4.8 0.00 0.00 0.00 44 1011.3
20260506022926 22 23 1.6 3.2 0.00 0.00 0.00 43 1011.1
20260506022423 22 23 9.7 11.3 0.00 0.00 0.00 43 1011.2
20260506021921 22 23 1.6 3.2 0.00 0.00 0.00 43 1011.1
20260506021418 22 23 8.0 11.3 0.00 0.00 0.00 43 1011.2
20260506020915 22 23 3.2 4.8 0.00 0.00 0.00 42 1011.1
20260506020413 22 23 9.7 12.9 0.00 0.00 0.00 42 1011.0
20260506015910 23 23 8.0 11.3 0.00 0.00 0.00 41 1011.0
20260506015408 22 23 3.2 3.2 0.00 0.00 0.00 42 1011.2
20260506014904 22 23 6.4 6.4 0.00 0.00 0.00 42 1010.9
20260506014401 22 23 3.2 3.2 0.00 0.00 0.00 42 1010.9
20260506013857 22 23 1.6 1.6 0.00 0.00 0.00 40 1010.7
20260506013356 22 23 6.4 9.7 0.00 0.00 0.00 39 1011.0
20260506012851 22 23 0.0 0.0 0.00 0.00 0.00 40 1010.9
20260506012348 22 23 3.2 4.8 0.00 0.00 0.00 42 1010.8
20260506011846 22 23 8.0 9.7 0.00 0.00 0.00 39 1010.6
20260506011342 22 23 0.0 0.0 0.00 0.00 0.00 40 1010.5
20260506010840 23 23 3.2 3.2 0.00 0.00 0.00 38 1010.7
20260506010338 23 23 6.4 9.7 0.00 0.00 0.00 36 1010.5
20260506005834 23 23 1.6 4.8 0.00 0.00 0.00 37 1010.6
20260506005331 23 23 4.8 6.4 0.00 0.00 0.00 36 1010.3
20260506004827 23 23 1.6 1.6 0.00 0.00 0.00 36 1010.4
20260506004325 23 23 6.4 9.7 0.00 0.00 0.00 34 1010.5
20260506003821 23 23 6.4 9.7 0.00 0.00 0.00 34 1010.2
20260506003317 24 23 3.2 3.2 0.00 0.00 0.00 34 1010.2
20260506002814 24 23 4.8 4.8 0.00 0.00 0.00 32 1010.2
20260506002311 24 23 3.2 4.8 0.00 0.00 0.00 33 1010.3
20260506001806 24 23 3.2 4.8 0.00 0.00 0.00 33 1010.0
20260506001303 25 23 11.3 14.5 0.00 0.00 0.00 32 1010.0
20260506000800 25 23 1.6 1.6 0.00 0.00 0.00 33 1010.1
20260506000258 25 23 4.8 6.4 0.00 0.00 0.00 32 1009.9
20260505235755 24 23 6.4 9.7 0.00 0.00 0.00 33 1009.9
20260505235253 25 23 1.6 3.2 0.00 0.00 0.00 33 1010.0
20260505234749 25 23 6.4 9.7 0.00 0.00 0.00 31 1009.9
20260505234247 25 23 3.2 3.2 0.00 0.00 0.00 31 1010.0
20260505233743 25 23 4.8 6.4 0.00 0.00 0.00 29 1009.8
20260505233241 26 23 4.8 4.8 0.00 0.00 0.00 29 1009.8
20260505232738 26 23 4.8 4.8 0.00 0.00 0.00 29 1009.9
20260505232235 26 23 1.6 1.6 0.00 0.00 0.00 30 1009.7
20260505231732 26 23 8.0 14.5 0.00 0.00 0.00 29 1009.9
20260505231231 26 23 6.4 9.7 0.00 0.00 0.00 29 1009.8
20260505230729 26 23 1.6 1.6 0.00 0.00 0.00 27 1009.7
20260505230225 26 23 8.0 9.7 0.00 0.00 0.00 27 1009.9
20260505225722 26 23 6.4 11.3 0.00 0.00 0.00 28 1010.0
20260505225219 26 23 3.2 3.2 0.00 0.00 0.00 28 1009.8
20260505224714 26 23 9.7 14.5 0.00 0.00 0.00 28 1009.8
20260505224212 26 23 3.2 4.8 0.00 0.00 0.00 30 1009.8
20260505223709 26 23 6.4 9.7 0.00 0.00 0.00 29 1009.9
20260505223205 26 23 3.2 4.8 0.00 0.00 0.00 29 1009.7
20260505222701 27 23 3.2 4.8 0.00 0.00 0.00 29 1009.9
20260505222157 27 23 0.0 0.0 0.00 0.00 0.00 29 1009.9
20260505221655 27 23 3.2 4.8 0.00 0.00 0.00 28 1009.8
20260505221151 27 23 9.7 12.9 0.00 0.00 0.00 28 1009.8
20260505220649 27 23 9.7 14.5 0.00 0.00 0.00 28 1009.8
20260505220146 26 23 3.2 3.2 0.00 0.00 0.00 31 1009.7
20260505215644 27 23 4.8 6.4 0.00 0.00 0.00 29 1009.8
20260505215142 27 23 4.8 6.4 0.00 0.00 0.00 28 1009.7
20260505214639 27 23 8.0 12.9 0.00 0.00 0.00 28 1009.8
20260505214136 27 23 11.3 12.9 0.00 0.00 0.00 28 1009.7
20260505213634 27 23 6.4 11.3 0.00 0.00 0.00 29 1009.6
20260505213131 27 23 3.2 4.8 0.00 0.00 0.00 30 1009.7
20260505212627 27 23 11.3 14.5 0.00 0.00 0.00 29 1010.0
20260505212125 27 23 4.8 9.7 0.00 0.00 0.00 29 1009.8
20260505211621 27 23 14.5 17.7 0.00 0.00 0.00 29 1009.9
20260505211118 27 22 9.7 12.9 0.00 0.00 0.00 30 1009.8
20260505210614 27 23 12.9 17.7 0.00 0.00 0.00 29 1009.6
20260505210111 27 22 1.6 3.2 0.00 0.00 0.00 30 1009.6
20260505205609 28 22 3.2 4.8 0.00 0.00 0.00 29 1009.5
20260505205107 28 22 11.3 20.9 0.00 0.00 0.00 29 1009.6
20260505204604 28 22 6.4 6.4 0.00 0.00 0.00 29 1009.7
20260505204102 28 22 8.0 12.9 0.00 0.00 0.00 29 1009.5
20260505203558 28 22 14.5 16.1 0.00 0.00 0.00 28 1009.3
20260505203055 28 22 3.2 3.2 0.00 0.00 0.00 29 1009.4
20260505202550 28 22 9.7 14.5 0.00 0.00 0.00 28 1009.5
20260505202047 28 22 6.4 9.7 0.00 0.00 0.00 29 1009.5
20260505201543 28 22 3.2 3.2 0.00 0.00 0.00 29 1009.6
20260505201042 28 22 3.2 3.2 0.00 0.00 0.00 29 1009.6
20260505200540 28 22 3.2 4.8 0.00 0.00 0.00 29 1009.5
20260505200036 28 22 8.0 12.9 0.00 0.00 0.00 28 1009.7
20260505195531 28 22 3.2 4.8 0.00 0.00 0.00 28 1009.8
20260505195029 28 22 14.5 20.9 0.00 0.00 0.00 27 1009.9
20260505194526 28 22 6.4 9.7 0.00 0.00 0.00 28 1009.9
20260505194021 28 22 11.3 14.5 0.00 0.00 0.00 28 1009.8
20260505193519 28 22 3.2 3.2 0.00 0.00 0.00 28 1010.2
20260505193016 28 22 14.5 24.1 0.00 0.00 0.00 27 1010.1
20260505192515 28 22 11.3 20.9 0.00 0.00 0.00 26 1010.1
20260505192012 28 22 1.6 1.6 0.00 0.00 0.00 30 1010.0
20260505191510 28 22 4.8 6.4 0.00 0.00 0.00 28 1010.3
20260505191009 28 22 4.8 6.4 0.00 0.00 0.00 29 1010.4
20260505190503 28 22 19.3 29.0 0.00 0.00 0.00 28 1010.4
20260505185958 28 22 6.4 11.3 0.00 0.00 0.00 29 1010.4
20260505185455 28 22 4.8 4.8 0.00 0.00 0.00 29 1010.3
20260505184951 28 22 6.4 11.3 0.00 0.00 0.00 29 1010.6
20260505184448 28 22 9.7 12.9 0.00 0.00 0.00 29 1010.5
20260505183945 28 22 3.2 6.4 0.00 0.00 0.00 29 1010.6
20260505183442 28 22 3.2 4.8 0.00 0.00 0.00 30 1010.7
20260505182938 28 22 6.4 9.7 0.00 0.00 0.00 31 1010.8
20260505182436 27 22 12.9 17.7 0.00 0.00 0.00 30 1010.8
20260505181932 27 22 8.0 12.9 0.00 0.00 0.00 30 1011.1
20260505181429 28 22 16.1 17.7 0.00 0.00 0.00 30 1011.0
20260505180926 27 22 4.8 6.4 0.00 0.00 0.00 30 1011.1
20260505180422 28 22 9.7 16.1 0.00 0.00 0.00 29 1011.2
20260505175919 27 23 11.3 14.5 0.00 0.00 0.00 31 1011.3
20260505175415 28 22 12.9 16.1 0.00 0.00 0.00 29 1011.2
20260505174912 27 22 12.9 16.1 0.00 0.00 0.00 32 1011.2
20260505174410 27 22 3.2 4.8 0.00 0.00 0.00 34 1011.2
20260505173906 27 23 6.4 9.7 0.00 0.00 0.00 34 1011.4
20260505173402 27 23 6.4 6.4 0.00 0.00 0.00 36 1011.2
20260505172859 27 23 1.6 1.6 0.00 0.00 0.00 37 1011.5
20260505172357 27 23 4.8 6.4 0.00 0.00 0.00 37 1011.5
20260505171856 26 23 3.2 6.4 0.00 0.00 0.00 37 1011.4
20260505171353 27 22 1.6 3.2 0.00 0.00 0.00 37 1011.7
20260505170850 27 23 8.0 11.3 0.00 0.00 0.00 36 1011.6
20260505170347 27 23 4.8 6.4 0.00 0.00 0.00 36 1012.0
20260505165842 27 23 6.4 6.4 0.00 0.00 0.00 37 1011.9
20260505165338 27 23 6.4 6.4 0.00 0.00 0.00 37 1011.8
20260505164834 26 23 4.8 6.4 0.00 0.00 0.00 36 1012.0
20260505164331 26 23 3.2 4.8 0.00 0.00 0.00 39 1011.9
20260505163829 26 23 3.2 3.2 0.00 0.00 0.00 41 1012.1
20260505163327 26 23 6.4 6.4 0.00 0.00 0.00 36 1012.1
20260505162825 26 23 4.8 4.8 0.00 0.00 0.00 38 1012.1
20260505162321 26 23 11.3 12.9 0.00 0.00 0.00 38 1012.3
20260505161819 26 23 6.4 9.7 0.00 0.00 0.00 38 1012.4
20260505161316 26 23 6.4 9.7 0.00 0.00 0.00 37 1012.6
20260505160813 26 23 3.2 3.2 0.00 0.00 0.00 36 1012.6
20260505160311 26 23 6.4 9.7 0.00 0.00 0.00 37 1012.6
20260505153250 25 23 4.8 6.4 0.00 0.00 0.00 40 1012.7
20260505152748 25 23 3.2 4.8 0.00 0.00 0.00 41 1012.8
20260505152244 25 23 3.2 4.8 0.00 0.00 0.00 41 1012.5
20260505151743 25 23 4.8 4.8 0.00 0.00 0.00 42 1012.7
20260505151241 25 23 4.8 11.3 0.00 0.00 0.00 42 1012.7
20260505150738 25 23 1.6 3.2 0.00 0.00 0.00 42 1012.6
20260505150236 24 23 3.2 3.2 0.00 0.00 0.00 43 1012.8
20260505140206 22 23 3.2 4.8 0.00 0.00 0.00 46 1012.8
20260505130129 20 23 1.6 1.6 0.00 0.00 0.00 50 1013.2
20260505124619 19 23 1.6 3.2 0.00 0.00 0.00 52 1013.4
20260505124115 19 23 3.2 3.2 0.00 0.00 0.00 52 1013.4
20260505123611 19 23 4.8 6.4 0.00 0.00 0.00 52 1013.2
20260505123108 18 23 4.8 4.8 0.00 0.00 0.00 52 1013.3
20260505122605 18 23 3.2 3.2 0.00 0.00 0.00 54 1013.2
20260505122102 18 23 3.2 4.8 0.00 0.00 0.00 53 1013.2
20260505121558 18 23 3.2 3.2 0.00 0.00 0.00 54 1013.3
20260505121055 18 23 0.0 1.6 0.00 0.00 0.00 55 1013.1
20260505120551 17 23 0.0 1.6 0.00 0.00 0.00 58 1013.0
20260505120047 16 23 1.6 3.2 0.00 0.00 0.00 62 1013.1
20260505115542 15 23 0.0 1.6 0.00 0.00 0.00 65 1013.0
20260505115040 15 24 0.0 0.0 0.00 0.00 0.00 67 1013.1
20260505114536 14 23 0.0 0.0 0.00 0.00 0.00 69 1012.9
20260505114032 14 23 0.0 0.0 0.00 0.00 0.00 71 1012.8
20260505113529 14 23 0.0 0.0 0.00 0.00 0.00 71 1012.8
20260505113026 13 23 0.0 0.0 0.00 0.00 0.00 70 1012.8
20260505112522 13 23 0.0 0.0 0.00 0.00 0.00 71 1013.0
20260505112021 13 23 0.0 0.0 0.00 0.00 0.00 73 1012.7
20260505111520 13 23 0.0 0.0 0.00 0.00 0.00 74 1012.9
20260505111016 13 23 0.0 0.0 0.00 0.00 0.00 75 1012.5
20260505110513 12 23 0.0 0.0 0.00 0.00 0.00 76 1012.6
20260505101945 11 24 0.0 0.0 0.00 0.00 0.00 82 1012.1
20260505101438 11 24 0.0 0.0 0.00 0.00 0.00 82 1012.3
20260505100934 11 23 0.0 0.0 0.00 0.00 0.00 83 1012.0
20260505100432 11 24 0.0 0.0 0.00 0.00 0.00 83 1012.1
20260505095927 11 23 0.0 0.0 0.00 0.00 0.00 83 1011.9
20260505095424 11 23 0.0 0.0 0.00 0.00 0.00 83 1011.9
20260505094920 11 24 0.0 0.0 0.00 0.00 0.00 82 1011.9
20260505094418 11 23 0.0 0.0 0.00 0.00 0.00 83 1011.9
20260505093914 11 24 0.0 0.0 0.00 0.00 0.00 83 1011.9
20260505093411 11 23 0.0 0.0 0.00 0.00 0.00 83 1011.7
20260505092908 11 24 0.0 0.0 0.00 0.00 0.00 82 1011.7
20260505092406 11 23 0.0 0.0 0.00 0.00 0.00 81 1011.7
20260505091903 11 24 0.0 0.0 0.00 0.00 0.00 81 1011.7
20260505091401 11 24 0.0 0.0 0.00 0.00 0.00 81 1011.7
20260505090858 11 24 0.0 0.0 0.00 0.00 0.00 81 1011.5
20260505090356 11 23 0.0 0.0 0.00 0.00 0.00 80 1011.8
20260505085853 11 24 0.0 0.0 0.00 0.00 0.00 80 1011.9
20260505085351 11 24 0.0 0.0 0.00 0.00 0.00 82 1011.8
20260505084849 11 24 0.0 0.0 0.00 0.00 0.00 82 1012.0
20260505084347 11 23 0.0 0.0 0.00 0.00 0.00 82 1011.8
20260505083844 11 23 0.0 0.0 0.00 0.00 0.00 82 1011.9
20260505083342 11 23 0.0 0.0 0.00 0.00 0.00 82 1011.8
20260505082838 11 24 0.0 0.0 0.00 0.00 0.00 81 1011.8
20260505082334 11 23 0.0 0.0 0.00 0.00 0.00 81 1011.7
20260505081831 11 23 0.0 0.0 0.00 0.00 0.00 81 1011.8
20260505081327 11 24 0.0 0.0 0.00 0.00 0.00 81 1011.6
20260505080825 11 23 0.0 0.0 0.00 0.00 0.00 82 1011.9
20260505080320 11 23 0.0 0.0 0.00 0.00 0.00 82 1011.9
20260505075816 11 24 0.0 0.0 0.00 0.00 0.00 81 1011.6
20260505075313 11 24 0.0 0.0 0.00 0.00 0.00 81 1011.8
20260505074810 11 24 0.0 0.0 0.00 0.00 0.00 81 1011.8
20260505074307 11 24 0.0 0.0 0.00 0.00 0.00 81 1011.7
20260505073805 11 23 0.0 0.0 0.00 0.00 0.00 81 1011.5
20260505073303 11 24 0.0 0.0 0.00 0.00 0.00 81 1011.6
20260505072759 11 24 0.0 0.0 0.00 0.00 0.00 81 1011.4
20260505072255 11 23 1.6 1.6 0.00 0.00 0.00 82 1011.4
20260505071751 11 24 0.0 0.0 0.00 0.00 0.00 82 1011.6
20260505071248 11 23 0.0 0.0 0.00 0.00 0.00 81 1011.4
20260505070746 11 23 0.0 0.0 0.00 0.00 0.00 81 1011.5
20260505070242 11 23 0.0 0.0 0.00 0.00 0.00 81 1011.4
20260505065737 11 24 0.0 0.0 0.00 0.00 0.00 80 1011.3
20260505065235 11 23 0.0 0.0 0.00 0.00 0.00 80 1011.3
20260505064732 11 23 0.0 0.0 0.00 0.00 0.00 80 1011.4
20260505064229 11 24 0.0 0.0 0.00 0.00 0.00 80 1011.5
20260505063727 11 24 0.0 0.0 0.00 0.00 0.00 79 1011.3
20260505063223 11 24 0.0 0.0 0.00 0.00 0.00 79 1011.6
20260505062719 11 24 0.0 0.0 0.00 0.00 0.00 78 1011.6
20260505062217 11 24 0.0 0.0 0.00 0.00 0.00 78 1011.4
20260505061714 11 24 0.0 0.0 0.00 0.00 0.00 78 1011.4
20260505061212 12 23 0.0 0.0 0.00 0.00 0.00 78 1011.6
20260505060709 12 24 0.0 0.0 0.00 0.00 0.00 78 1011.5
20260505060205 12 24 0.0 0.0 0.00 0.00 0.00 77 1011.4
20260505055701 12 24 0.0 0.0 0.00 0.00 0.00 77 1011.5
20260505055158 12 24 0.0 1.6 0.00 0.00 0.00 77 1011.3
20260505054655 12 24 0.0 0.0 0.00 0.00 0.00 77 1011.5
20260505054153 12 23 0.0 0.0 0.00 0.00 0.00 77 1011.3
20260505053650 12 23 0.0 0.0 0.00 0.00 0.00 76 1011.6
20260505053147 12 24 0.0 0.0 0.00 0.00 0.00 76 1011.5
20260505052644 12 23 0.0 0.0 0.00 0.00 0.00 75 1011.6
20260505052141 12 23 0.0 0.0 0.00 0.00 0.00 74 1011.7
20260505051637 12 24 0.0 0.0 0.00 0.00 0.00 74 1011.7
20260505051136 12 24 0.0 0.0 0.00 0.00 0.00 74 1011.7
20260505050633 13 23 0.0 0.0 0.00 0.00 0.00 73 1011.5
20260505050132 13 23 0.0 0.0 0.00 0.00 0.00 73 1011.7
20260505041601 13 23 0.0 0.0 0.00 0.00 0.00 70 1011.6
20260505041059 13 23 0.0 0.0 0.00 0.00 0.00 70 1011.6
20260505040556 13 23 0.0 0.0 0.00 0.00 0.00 70 1011.7
20260505040053 13 23 0.0 0.0 0.00 0.00 0.00 70 1011.5
20260505035549 13 23 0.0 1.6 0.00 0.00 0.00 70 1011.6
20260505035046 13 23 0.0 0.0 0.00 0.00 0.00 69 1011.3
20260505034542 13 23 0.0 1.6 0.00 0.00 0.00 69 1011.5
20260505034039 13 23 0.0 0.0 0.00 0.00 0.00 69 1011.5
20260505033536 13 23 0.0 0.0 0.00 0.00 0.00 68 1011.5
20260505033034 13 23 0.0 0.0 0.00 0.00 0.00 68 1011.6
20260505032532 14 23 0.0 0.0 0.00 0.00 0.00 68 1011.7
20260505032028 14 23 0.0 0.0 0.00 0.00 0.00 68 1011.5
20260505031526 14 23 0.0 0.0 0.00 0.00 0.00 67 1011.4
20260505031022 14 23 0.0 0.0 0.00 0.00 0.00 67 1011.5
20260505030519 14 23 0.0 0.0 0.00 0.00 0.00 66 1011.4
20260505030015 14 23 0.0 0.0 0.00 0.00 0.00 66 1011.5